St. Eustatius, Netherlands

5:02 PM AST on May 23, 2017 (GMT -0400)
F.D. Roosevelt

Weather History for TNCE - November, 2011

Change the Weather History Date:

Wednesday, November 2, 2011

  Actual Average Record
Temperature  
Mean Temperature 80 °F -  
Max Temperature 86 °F 83 °F 89 °F (2003)
Min Temperature 73 °F 77 °F 73 °F (2011)
Cooling Degree Days 16    
Growing Degree Days 30 (Base 50)    
Moisture  
Dew Point 74 °F    
Average Humidity 78    
Maximum Humidity 94    
Minimum Humidity 61    
Precipitation  
Precipitation 0.43 in - - ()
Sea Level Pressure  
Sea Level Pressure 29.93 in    
Wind  
Wind Speed 5 mph ()    
Max Wind Speed 15 mph    
Max Gust Speed -    
Visibility 7.2 miles    
Events Rain    
Averages and records for this station are not official NWS values.
T = Trace of Precipitation, MM = Missing Value Source: Averaged Metar Reports

Daily Weather History Graph

Daily Weather History Graph

Search for Another Location

Airport or City:

Trip Planner

Search our weather history database for the weather conditions in past years. The results will help you decide how hot, cold, wet, or windy it might be!

Date:

Astronomy

Nov. 02, 2011 Rise Set
Actual Time 6:10 AM AST 5:39 PM AST
Civil Twilight 5:48 AM AST 6:02 PM AST
Nautical Twilight 5:22 AM AST 6:28 PM AST
Astronomical Twilight 4:56 AM AST 6:53 PM AST
Moon 12:28 PM AST (11/2) No Moon Set
Length of Visible Light 12h 13m
Length of Day
11h 29m
Waxing Crescent, 50% of the Moon is Illuminated
Nov 2
Waxing Crescent
Nov 2
First Quarter
Nov 10
Full
Nov 18
Last Quarter
Nov 25
New

Hourly Weather History & Observations

Time (AST) Temp. Heat Index Dew Point Humidity Pressure Visibility Wind Dir Wind Speed Gust Speed Precip Events Conditions
1:00 AM 78.8 °F - 73.4 °F 83% 29.92 in - East 4.6 mph - N/A   Unknown
2:00 AM 80 °F - 73 °F 73%  in - ESE 5.8 mph - -   Clear
2:00 AM 80.6 °F 85.4 °F 73.4 °F 79% 29.89 in - East 4.6 mph - N/A   Unknown
7:00 AM 80.6 °F 85.4 °F 73.4 °F 79% 29.95 in 6.2 mi East 4.6 mph - N/A   Partly Cloudy
8:00 AM 84 °F - 73 °F 63% 29.95 in 12 mi ESE 3.5 mph - -   Scattered Clouds
8:00 AM 82.4 °F 88.2 °F 73.4 °F 74% 29.95 in 6.2 mi ESE 4.6 mph - N/A   Partly Cloudy
9:00 AM 84.2 °F 92.3 °F 75.2 °F 74% 29.98 in 6.2 mi East 6.9 mph - N/A   Scattered Clouds
10:00 AM 86.0 °F 95.1 °F 75.2 °F 70% 29.98 in 6.2 mi South 5.8 mph - N/A   Scattered Clouds
11:00 AM 86.0 °F 96.9 °F 77.0 °F 74% 29.98 in 6.2 mi East 6.9 mph - N/A   Scattered Clouds
12:00 PM 86.0 °F 95.1 °F 75.2 °F 70% 29.95 in 6.2 mi SSE 9.2 mph - N/A   Scattered Clouds
1:00 PM 86.0 °F 93.4 °F 73.4 °F 66% 29.92 in 6.2 mi SSE 6.9 mph - N/A   Scattered Clouds
2:00 PM 85 °F - 74 °F 61% 29.91 in 12 mi South 8.1 mph - -   Mostly Cloudy
2:00 PM 86.0 °F 93.4 °F 73.4 °F 66% 29.92 in 6.2 mi SSE 6.9 mph - N/A   Mostly Cloudy
3:00 PM 86.0 °F 95.1 °F 75.2 °F 70% 29.89 in 6.2 mi SE 4.6 mph - N/A   Mostly Cloudy
4:00 PM 84.2 °F 92.3 °F 75.2 °F 74% 29.89 in 6.2 mi East 8.1 mph - N/A   Mostly Cloudy
5:00 PM 75 °F - 73 °F 93% 29.90 in 11 mi NNW 4.6 mph - - Rain Light Rain Showers
5:00 PM 75.2 °F - 73.4 °F 94% 29.89 in 6.2 mi NNE 3.5 mph - N/A   Scattered Clouds
6:00 PM 78.8 °F - 77.0 °F 94% 29.92 in 6.2 mi East 3.5 mph - N/A Rain Light Rain
7:00 PM 77.0 °F - 75.2 °F 94% 29.92 in - SSW 2.3 mph - N/A   Unknown
8:00 PM 77.0 °F - 75.2 °F 94% 29.95 in 6.2 mi South 1.2 mph - N/A Rain Light Rain
9:00 PM 73.4 °F - 71.6 °F 94% 29.98 in 6.2 mi SSW 15.0 mph - N/A Rain Rain